Showing default

COSMOS 2512, 41099

Orbit data source: Space-Track

COSMOS 2512, 41099 is a Commonwealth of Independent States-origin payload satellite in SSO that was launched on Sat, 05 Dec 2015 UTC via a SOYUZ-2-1V launch vehicle from the Plesetsk Missile And Space Complex (PKMTR). Payloads include a variety of satellites, spacecraft, and rockets equipped with specific instruments for various scientific and technological missions. These include communications satellites like Starlink; space stations such as the ISS; scientific satellites like the Hubble; Earth observation satellites from companies like Planet Labs, Umbra, and HawkEye 360; GPS; miniature CubeSats for education and research; and military/defense satellites.

Loading next visibility...
COSMOS 2512 details
Identifier
41099, 2015-071B
Orbit
SSO
Last TLE update8 hours ago
Origin
Flag of CISPVO? (CIS)
ManufacturerALMAN?
MissionNon-operational Defense Calibration
Bus & MotorSKRL, Unknown motor
Mass16 kg wet, 16 kg dry
Launch date (UTC)
2015-12-05 (9 years ago)
Launch vehicle
SOYUZ-2-1V
Launch site
Plesetsk Missile And Space Complex (PKMTR)
Object type
Payload
Rocket body
Debris
Shape & HBRSphere, 0.8 m
Radar Cross Section0.503 m², Medium (>0.1 m² and < 1m²)

Expand to show TLE details & history

TLE from 8 hours ago
0 COSMOS 2512
1 41099U 15071B   24346.55066770  .00005609  00000-0  92038-3 0  9997
2 41099  98.0998 359.8381 0006022 359.8246   0.2957 14.71063588481753
Epoch: 2024-12-11T13:12Z
Definitive object data (Epoch: 2024-12-11T13:12:57.689Z)
Latitude-0.00004°
Longitude80.854°
Altitude656.44 km
Speed7.532 km/s
True Right ascension23h 59m 21s
True Declination0° 00' 00"
Sunlit
Object was in daylight at TLE epoch
Visualization TLE readout
Latitude4.55682°
Longitude80.54658°
Altitude655.974 km
Speed7.532 km/s
Apparent Right ascension02h 47m 51s
Apparent Declination-28° 36' 41"
Sunlit
Object is in daylight
Visualization observer readout
Local Sidereal Time19:47:47
Azimuth104.628° ESE
Elevation-28.8°
Doppler factor1
Orbital elements
Apogee altitude658.972 km
Perigee altitude650.501 km
Semi-major axis7,032.874 km
Eccentricity0.0006022
Inclination98.0998°
RAAN359.8381°
Arg. of periapsis359.8246°
True anomaly0.29606°
Mean anomaly0.2957°
Eccentric anomaly0.29588°
Mean motion3.67997 °/min
BSTAR0.00092038
Orbital period97.83 mins
Loading maneuver chart data...
Loading historical data...
Loading historical data...
Loading historical data...
Loading historical data...
Loading historical data...
Loading historical data...
Loading historical data...

COSMOS 2512 Visibility forecast

Observer location: undefined°, undefined

Span
Click to sort rows by Start time (UTC) header in descending order
Start Az.
Max El. time (UTC)
Max El. Az.
Max El.
End time (UTC)
End Az.
8 mins2024-12-12 00:45:56.367Z148.654° SSE2024-12-12 00:49:56.367Z65.678° ENE39.099°2024-12-12 00:53:56.367Z357.304° N
7 mins2024-12-12 14:16:56.367Z0.62° NNE2024-12-12 14:19:56.367Z282.614° WNW41.143°2024-12-12 14:23:56.367Z207.432° SW
|